Wind_Speed
19 19 18 16 16 15 14 12 11 9 7 6 6 5 5 7 8 8 6 6 6 10
18 17 17 16 15 13 11 9 6 6 6 5 3 3 4 5 7 7 7 7 6 8
19 18 17 15 11 9 8 6 7 8 6 5 4 4 6 7 8 7 7 7 6 10
16 14 12 10 10 9 7 7 10 9 5 3 4 6 9 10 9 8 7 8 8 9
11 10 9 11 11 9 9 8 10 8 3 5 6 8 13 13 11 8 9 8 10 10
11 10 8 9 9 10 9 12 10 5 4 5 8 9 10 6 5 9 8 9 10 12
10 6 5 11 9 6 13 11 4 3 3 5 7 7 2 1 3 6 9 11 11 11
10 6 5 13 10 12 15 8 5 3 3 5 6 3 3 1 3 5 7 8 11 9
9 9 10 10 11 15 12 8 6 3 2 5 5 4 3 2 2 2 5 7 10 8
12 11 11 13 13 13 9 8 6 3 2 5 5 5 4 2 3 3 7 6 10 15
12 11 11 11 12 12 9 8 7 4 1 4 5 5 4 3 3 5 9 10 10 9
13 10 15 14 11 11 10 9 8 5 3 4 6 4 3 4 5 7 11 10 11 6
12 12 11 9 10 10 10 10 9 6 4 4 2 2 3 5 5 8 12 13 9 14
12 11 11 9 8 9 10 11 10 7 5 2 2 1 3 5 3 5 15 15 15 18
Wind_Direction
183 183 180 185 190 199 205 220 242 253 222 225 226 245 239 253 258 256 259 260 259 234
172 171 175 181 183 194 218 227 230 209 194 209 198 207 240 253 272 257 244 245 241 229
158 167 175 180 191 201 213 210 190 168 166 178 214 253 271 275 273 254 237 238 237 226
158 169 178 188 188 185 173 160 155 154 159 190 260 283 283 282 267 248 231 231 232 221
165 171 178 190 183 175 160 159 169 165 193 270 278 285 289 282 255 243 230 221 212 216
144 150 160 169 168 169 163 157 155 176 225 270 302 298 293 279 261 231 219 214 214 217
146 164 154 167 159 182 162 158 167 176 249 298 317 322 328 241 235 218 222 214 209 210
157 173 187 165 167 164 156 162 159 191 298 338 343 7 49 194 207 209 217 223 204 197
176 159 155 169 177 165 160 161 181 177 16 5 7 5 54 131 103 198 195 167 168 177
164 156 169 151 150 162 166 174 180 188 12 6 9 19 16 32 80 122 157 158 152 151
165 166 171 174 179 178 174 182 184 208 299 347 351 13 27 23 112 116 142 148 158 151
170 169 173 179 189 183 187 196 199 224 265 321 327 357 38 72 101 131 131 126 143 146
180 175 173 186 193 190 193 208 213 224 253 301 306 22 70 95 101 139 138 137 120 125
171 173 179 189 192 194 206 215 217 217 232 238 179 102 116 110 97 151 148 140 131 129
Height
1409 1414 1418 1423 1427 1431 1434 1436 1438 1439 1439 1441 1442 1444 1444 1445 1446 1446 1446 1446 1446 1447
1411 1414 1419 1424 1428 1431 1432 1434 1435 1436 1438 1440 1441 1443 1443 1444 1444 1444 1444 1444 1445 1446
1412 1416 1420 1424 1427 1429 1431 1432 1434 1436 1438 1440 1441 1442 1442 1442 1442 1441 1442 1442 1443 1445
1414 1418 1421 1424 1426 1429 1431 1432 1434 1436 1438 1440 1441 1441 1440 1440 1440 1440 1440 1441 1442 1443
1416 1419 1422 1424 1426 1429 1431 1433 1435 1437 1438 1439 1439 1438 1438 1437 1437 1438 1438 1439 1440 1442
1418 1420 1422 1424 1426 1428 1431 1433 1435 1437 1438 1439 1438 1437 1435 1434 1435 1435 1436 1438 1439 1441
1418 1421 1422 1424 1426 1428 1431 1434 1436 1437 1438 1438 1437 1435 1433 1433 1432 1434 1435 1436 1437 1439
1419 1421 1422 1425 1427 1429 1432 1435 1437 1438 1439 1438 1436 1435 1434 1434 1434 1434 1434 1435 1436 1439
1419 1421 1423 1425 1428 1430 1433 1435 1437 1438 1439 1438 1437 1436 1435 1434 1434 1433 1434 1435 1436 1438
1420 1422 1425 1427 1429 1431 1434 1436 1437 1439 1439 1439 1438 1437 1436 1435 1435 1435 1436 1437 1438 1439
1420 1423 1425 1428 1430 1432 1434 1436 1438 1439 1439 1439 1439 1438 1437 1436 1436 1436 1437 1438 1440 1441
1420 1423 1425 1428 1430 1432 1434 1436 1438 1439 1440 1439 1439 1439 1439 1438 1438 1438 1440 1442 1443 1444
1421 1423 1425 1428 1430 1432 1434 1436 1438 1439 1440 1440 1440 1440 1441 1441 1441 1441 1443 1445 1447 1448
1422 1424 1426 1428 1430 1431 1433 1435 1437 1439 1440 1440 1441 1441 1442 1443 1444 1444 1445 1448 1450 1452